Location: Newark
(48.1500°N, 13.1167°E)
Time: 19:16:26
(UTC+00:00)

Tiangong - Pass Details

Date: 03 October 2021
Orbit: 382 x 385 km, 41.5° (Epoch: 16 October)

Event Time Altitude Azimuth Distance (km) Brightness Sun altitude
Exits shadow 03:28:37 24° 181° (S) 843 2.6 -17.6°
Drops below altitude 10° 03:31:12 10° 126° (SE) 1,398 4.4 -17.1°
Sets 03:33:30 0° 112° (ESE) 2,249 5.9 -16.8°
